User: anonymous   Login
Location: Ward Pound Ridge Reservation
(41.2500°N, 73.6000°W)
Time: 00:44:14
(UTC-05:00)
Language:

XW-2D - Orbit

View from above orbital plane
View from above orbital plane
View from above satellite
View from above satellite

Ground track
Ground track

The orbit data is extracted from the following two-line orbital elements,

1 40907U 15049J   18018.82560399  .00000627  00000-0  36912-4 0  9999
2 40907  97.4550  24.8145 0014413 179.1997 180.9261 15.15113851128887
Epoch (UTC): 18 January 2018 19:48:52
Eccentricity: 0.0014413
inclination: 97.4550°
perigee height: 510 km
apogee height: 530 km
right ascension of ascending node: 24.8145°
argument of perigee: 179.1997°
revolutions per day: 15.15113851
mean anomaly at epoch: 180.9261°
orbit number at epoch: 12888

The dashed part of the orbit path shows where the satellite is in the earth's shadow,  

DLR